Regional Weather Roundup
Issued by NWS

Home | Current Version | Previous Version | Text Only | Print | Product List | Glossary On
Versions: 1 2 3 4 5 6 7 8 9 10 11 12 13 14 15 16 17 18 19 20 21 22 23 24 25 26 27 28 29 30 31 32 33 34 35 36 37 38 39 40 41 42 43 44 45 46 47 48 49 50
000
ASUS45 KBOU 021607
RWRCO

WEATHER ROUNDUP FOR COLORADO
NATIONAL WEATHER SERVICE DENVER/BOULDER CO
900 AM MST FRI DEC 02 2016

NOTE: "FAIR" INDICATES FEW OR NO CLOUDS BELOW 12000 FEET WITH NO
SIGNIFICANT WEATHER AND/OR OBSTRUCTIONS TO VISIBILITY.

COZ001>005-013-030-031-021700-
...NORTHWEST COLORADO...

CITY           SKY/WX    TMP DP  RH WIND       PRES   REMARKS
CRAIG          CLOUDY    15  11  83 CALM      30.15R
HAYDEN         CLOUDY    16  10  79 W5        30.11R VSB<1/4 WCI   9
MEEKER         CLOUDY    17  16  95 CALM      30.10R
MOUNT WERNER   NOT AVBL
STEAMBOAT SPGS CLOUDY    12   6  77 CALM      30.10R
WALDEN           N/A     14  10  85 CALM      30.08R
$$

COZ006>008-011-021700-
...WEST CENTRAL VALLEYS...

CITY           SKY/WX    TMP DP  RH WIND       PRES   REMARKS
GRAND JUNCTION CLOUDY    31  23  72 SW3       30.08R
MONTROSE       PTSUNNY   23  14  68 S7        30.11R WCI  15
EAGLE          PTSUNNY   19  16  86 E6        30.11S WCI  11
RIFLE          PTSUNNY   26  20  77 CALM      30.10R
DELTA          CLOUDY    28  19  67 CALM      30.11R
NUCLA          CLOUDY    27  18  69 E3        30.08R
$$

COZ017>023-064>068-021700-
...SOUTHWEST COLORADO...

CITY           SKY/WX    TMP DP  RH WIND       PRES   REMARKS
DURANGO        CLOUDY    25  17  72 SE3       29.98R
CORTEZ         CLOUDY    27  19  72 CALM      30.00S
PAGOSA SPRINGS FAIR      26  13  59 CALM      30.00R
TELLURIDE      CLOUDY    17  11  78 CALM      29.99R
WOLF CREEK PAS PTSUNNY   12  10  92 S5        30.01R WCI   4
$$

COZ009-010-012-014-032>034-037-058>063-021700-
...CENTRAL COLORADO...

CITY           SKY/WX    TMP DP  RH WIND       PRES   REMARKS
ASPEN          FAIR      14   9  80 NW3       30.03R
BUENA VISTA    CLOUDY    15   8  73 CALM      30.09S
COPPER MTN       N/A     14   5  67 MISG      29.96R
BERTHOUD PASS  CLOUDY     1  -9  60 SE24G31   29.96R WCI -22
COTTONWOOD PAS LGT SNOW  19  10  68 E3        30.03R
GUNNISON       FLURRIES  12   6  77 VRB3      30.06S
KREMMLING      CLOUDY    21  18  86 CALM      30.11R
LEADVILLE      PTSUNNY   11   5  77 CALM      30.00R
MONARCH PASS   CLOUDY     7   3  85 NE13      30.06F WCI  -9
SALIDA         CLOUDY    17   7  64 CALM      30.19R
SUNLIGHT       LGT SNOW N/A N/A N/A NE5       30.02R
WILKERSON PASS CLOUDY     9   3  78 E6        30.04R WCI  -1
$$

COZ069>075-021700-
...SAN LUIS VALLEY/SANGRE DE CRISTO MOUNTAINS...

CITY           SKY/WX    TMP DP  RH WIND       PRES   REMARKS
ALAMOSA        CLOUDY    14   9  80 W3        30.05R
LA VETA PASS   LGT SNOW  12   9  85 SW9       30.02R VSB 1   WCI   0
SAGUACHE       CLOUDY    18   9  68 NW9       30.05S WCI   6
$$

COZ035-036-038>040-021700-
...NORTHERN COLORADO FRONT RANGE...

CITY           SKY/WX    TMP DP  RH WIND       PRES   REMARKS
DENVER INTL AP CLOUDY    28  12  51 SW5       30.18R WCI  23
DMNS CITY PARK   N/A     28  13  52 E3G9      30.19R
AURORA         CLOUDY    26  11  53 CALM      30.18R
FRONT RANGE AP NOT AVBL
ERIE MUNI ARPT CLOUDY    30  21  70 CALM      30.19R
BOULDER MUN AP CLOUDY    32  16  51 S3        30.18R
CENTENNIAL     CLOUDY    26  10  50 CALM      30.17R
BROOMFIELD     CLOUDY    30  18  59 CALM      30.18R
FORT COLLINS   FAIR      25  18  74 CALM      30.20R
LONGMONT       CLOUDY    29  18  62 CALM      30.21R
$$

COZ041-046-047-076>085-087-088-021700-
...PIKES PEAK/PALMER DIVIDE AND SOUTHERN FOOTHILLS...

CITY           SKY/WX    TMP DP  RH WIND       PRES   REMARKS
COLO. SPRINGS  CLOUDY    30   8  39 NE8       30.15R WCI  22
A. F. ACADEMY  CLOUDY    24   9  52 NW6       30.13R WCI  17
SCHRIEVER AFB  NOT AVBL
ELLICOTT       CLOUDY   N/A N/A N/A E12       30.12S
FALCON         CLOUDY    26   9  47 NE6       30.14R WCI  20
FORT CARSON    CLOUDY    29   8  41 N10       30.13R WCI  20
LIMON          CLOUDY    25  17  72 W5        30.18R WCI  19
MONUMENT HILL  CLOUDY    21  10  63 W3        30.15R
TRINIDAD       CLOUDY    28  10  46 W3        30.14R
$$

COZ042>045-048>051-090-091-021700-
...NORTHEAST COLORADO...

CITY           SKY/WX    TMP DP  RH WIND       PRES   REMARKS
GREELEY ARPT   FAIR      22  15  75 CALM      30.22R
AKRON          CLOUDY    27  18  69 W6        30.19R WCI  20
BURLINGTON     PTSUNNY   28  18  66 NW6       30.20R WCI  22
WRAY           NOT AVBL
STERLING       CLOUDY    25  19  80 SW5       30.21R WCI  19
HOLYOKE        FAIR      34  23  64 CALM      30.23R
FORT MORGAN    CLOUDY    29  20  68 W5        30.22R WCI  24
$$

COZ086-089-092>099-021700-
...SOUTHEAST COLORADO...

CITY           SKY/WX    TMP DP  RH WIND       PRES   REMARKS
PUEBLO         CLOUDY    25  14  63 CALM      30.16R
LA JUNTA       FAIR      22  14  71 CALM      30.20R
LAMAR          CLOUDY    24  16  71 W5        30.19R WCI  18
SPRINGFIELD      N/A     34  15  46 CALM      30.17R
$$



USA.gov is the U.S. government's official web portal to all federal, state and local government web resources and services.